Location: Ceske Budejovice
(48.9830°N, 14.4670°E)
Time: 20:49:31
(UTC+02:00)

ISS - Pass Details

Date: 27 March 2019
Orbit: 408 x 410 km, 51.6° (Epoch: 22 April)

Event Time Altitude Azimuth Distance (km) Brightness Sun altitude
Rises 20:09:07 0° 269° (W) 2,335 1.2 -17.2°
Reaches altitude 10° 20:11:14 10° 275° (W) 1,474 0.1 -17.5°
Maximum altitude 20:14:29 54° 353° (N) 506 -3.2 -18.0°
Enters shadow 20:15:27 37° 49° (NE) 653 -3.0 -18.1°
